Hourly Data Report for October 08, 2016

All times are specified in Local Standard Time (LST). Add 1 hour to adjust for Daylight Saving Time where and when it is observed.

CLYDE RIVER A
NUNAVUT

70°29'09.000" N
68°31'01.000" W
26.50 m
2400804
71090
YCY

Download Data

Hourly Data (October 2016)
Hourly Data Report for October 8, 2016
Temp Definition
°C
Dew Point Temp Definition
°C
Rel Hum Definition
%
Wind Dir Definition
10's deg

Wind Spd Definition
km/h
Visibility Definition
km
Stn Press Definition
kPa
Hmdx Definition


Wind Chill Definition


Weather Definition


TIME
00:00 Legend Double Dagger -0.6 -2.3 88 1 24 16.1 101.48   -7 LegendNANA
01:00 Legend Double Dagger -0.8 -2.9 86 35 21 16.1 101.47   -6 LegendNANA
02:00 Legend Double Dagger -1.0 -2.3 91 36 22 16.1 101.47   -7 LegendNANA
03:00 Legend Double Dagger -1.4 -2.4 93 35 21 16.1 101.45   -7 LegendNANA
04:00 Legend Double Dagger -1.4 -2.2 94 36 18 4.8 101.41   -7 Snow
05:00 Legend Double Dagger -1.3 -2.7 90 35 24 16.1 101.37   -7 Snow
06:00 Legend Double Dagger -1.7 -2.7 93 33 22 16.1 101.35   -8 LegendNANA
07:00 Legend Double Dagger -1.5 -2.3 94 33 21 6.4 101.32   -7 Snow
08:00 Legend Double Dagger -1.4 -2.2 94 34 24 6.4 101.27   -8 Snow
09:00 Legend Double Dagger -1.1 -2.7 89 35 21 8.1 101.22   -7 Snow
10:00 Legend Double Dagger -1.0 -2.3 91 36 22 14.5 101.14   -7 Snow
11:00 Legend Double Dagger -1.2 -1.9 95 34 28 1.6 101.06   -8 Snow
12:00 Legend Double Dagger -1.0 -2.7 88 36 18 16.1 101.00   -6 Snow
13:00 Legend Double Dagger -1.2 -2.2 93 34 22 9.7 100.95   -7 Snow
14:00 Legend Double Dagger -1.5 -2.9 90 34 18 16.1 100.91   -7 Snow
15:00 Legend Double Dagger -1.8 -2.5 95 35 21 3.2 100.86   -8 Snow
16:00 Legend Double Dagger -1.6 -2.3 95 34 13 4.8 100.83   -6 Snow
17:00 Legend Double Dagger -2.3 -3.9 89 32 18 16.1 100.79   -8 LegendNANA
18:00 Legend Double Dagger -2.1 -4.1 86 32 18 16.1 100.75   -8 LegendNANA
19:00 Legend Double Dagger -2.2 -4.7 83 31 22 16.1 100.74   -8 LegendNANA
20:00 Legend Double Dagger -2.5 -4.1 89 31 22 16.1 100.71   -9 LegendNANA
21:00 Legend Double Dagger -2.6 -3.9 91 31 17 16.1 100.70   -8 LegendNANA
22:00 Legend Double Dagger -3.5 -4.5 93 31 15 16.1 100.67   -9 LegendNANA
23:00 Legend Double Dagger -3.8 -5.0 91 31 17 16.1 100.64   -10 LegendNANA

Notes on Data Quality.

Legend

  • E = Estimated
  • M = Missing
  • NA = Not Available
  • ‡ = Partner data that is not subject to review by the National Climate Archives
Date modified: